• In United Kingdom
  • List of Countries
  • For 7 days
  • Water Temperature
  • Satellite Maps
  • Weather Map
  • Weather Widgets
  • user-avatar
    Login

    Hourly Weather Priazovskoe

    Today, 21 February, Wednesday

    Time Temperature Precipitation Wind Pressure Humidity
    00:00 -4°C° 0 mm 5 mps 767 mmHg 74%
    01:00 -4°C° 0 mm 5 mps 767 mmHg 74%
    02:00 -5°C° 0 mm 5 mps 767 mmHg 74%
    03:00 -5°C° 0 mm 5 mps 767 mmHg 74%
    04:00 -5°C° 0 mm 5 mps 767 mmHg 74%
    05:00 -5°C° 0 mm 6 mps 767 mmHg 74%
    06:00 -5°C° 0 mm 6 mps 766 mmHg 72%
    07:00 -4°C° 0 mm 6 mps 766 mmHg 70%
    08:00 -4°C° 0 mm 7 mps 766 mmHg 68%
    09:00 -3°C° 0 mm 7 mps 766 mmHg 63%
    10:00 -2°C° 0 mm 7 mps 766 mmHg 58%
    11:00 -1°C° 0 mm 7 mps 766 mmHg 53%
    12:00 -1°C° 0 mm 7 mps 766 mmHg 53%
    13:00 0°C° 0 mm 7 mps 765 mmHg 52%
    14:00 0°C° 0 mm 7 mps 765 mmHg 54%
    15:00 -1°C° 0 mm 7 mps 765 mmHg 58%
    16:00 -2°C° 0 mm 7 mps 765 mmHg 61%
    17:00 -2°C° 0 mm 6 mps 765 mmHg 65%
    18:00 -3°C° 0 mm 7 mps 765 mmHg 68%
    19:00 -3°C° 0 mm 7 mps 765 mmHg 72%
    20:00 -4°C° 0 mm 7 mps 765 mmHg 76%
    21:00 -4°C° 0 mm 7 mps 765 mmHg 76%
    22:00 -4°C° 0 mm 7 mps 765 mmHg 77%
    23:00 -6°C° 0 mm 7 mps 765 mmHg 77%

    Tomorrow, 22 February, Thursday

    Time Temperature Precipitation Wind Pressure Humidity
    00:00 -6°C° 0 mm 7 mps 765 mmHg 77%
    01:00 -6°C° 0 mm 7 mps 764 mmHg 76%
    02:00 -6°C° 0 mm 7 mps 764 mmHg 75%
    03:00 -6°C° 0 mm 7 mps 764 mmHg 75%
    04:00 -6°C° 0 mm 7 mps 764 mmHg 75%
    05:00 -5°C° 0 mm 6 mps 764 mmHg 75%
    06:00 -6°C° 0 mm 7 mps 764 mmHg 74%
    07:00 -6°C° 0 mm 7 mps 764 mmHg 74%
    08:00 -4°C° 0 mm 7 mps 764 mmHg 73%
    09:00 -3°C° 0 mm 7 mps 764 mmHg 70%
    10:00 -2°C° 0 mm 7 mps 764 mmHg 68%
    11:00 -1°C° 0 mm 7 mps 764 mmHg 65%
    12:00 -1°C° 0 mm 6 mps 764 mmHg 65%
    13:00 +1°C° 0 mm 6 mps 764 mmHg 64%
    14:00 +1°C° 0 mm 6 mps 763 mmHg 64%
    15:00 +1°C° 0 mm 6 mps 763 mmHg 67%
    16:00 -1°C° 0 mm 6 mps 763 mmHg 70%
    17:00 -1°C° 0 mm 6 mps 763 mmHg 74%
    18:00 -2°C° 0 mm 7 mps 763 mmHg 76%
    19:00 -2°C° 0 mm 7 mps 763 mmHg 78%
    20:00 -2°C° 0 mm 7 mps 763 mmHg 80%
    21:00 -4°C° 0.1 mm 8 mps 763 mmHg 81%
    22:00 -4°C° 0.1 mm 8 mps 763 mmHg 82%
    23:00 -4°C° 0.1 mm 8 mps 763 mmHg 83%

    Day after tomorrow, 23 February, Friday

    Time Temperature Precipitation Wind Pressure Humidity
    00:00 -4°C° 0.4 mm 8 mps 763 mmHg 86%
    01:00 -5°C° 0.4 mm 8 mps 763 mmHg 88%
    02:00 -5°C° 0.4 mm 8 mps 763 mmHg 91%
    03:00 -5°C° 0.9 mm 8 mps 762 mmHg 91%
    04:00 -5°C° 0.9 mm 8 mps 762 mmHg 92%
    05:00 -5°C° 0.9 mm 8 mps 762 mmHg 93%
    06:00 -5°C° 0.6 mm 8 mps 762 mmHg 92%
    07:00 -5°C° 0.6 mm 8 mps 762 mmHg 92%
    08:00 -6°C° 0.6 mm 8 mps 762 mmHg 92%
    09:00 -5°C° 0.3 mm 8 mps 762 mmHg 91%
    10:00 -4°C° 0.3 mm 7 mps 762 mmHg 91%
    11:00 -4°C° 0.3 mm 7 mps 762 mmHg 90%
    12:00 -3°C° 0.1 mm 7 mps 762 mmHg 89%
    13:00 -3°C° 0.1 mm 7 mps 762 mmHg 88%
    14:00 -3°C° 0.1 mm 6 mps 762 mmHg 88%
    15:00 -3°C° 0 mm 6 mps 762 mmHg 87%
    16:00 -3°C° 0 mm 6 mps 762 mmHg 87%
    17:00 -2°C° 0 mm 5 mps 763 mmHg 86%
    18:00 -4°C° 0 mm 5 mps 763 mmHg 87%
    19:00 -4°C° 0 mm 5 mps 763 mmHg 87%
    20:00 -4°C° 0 mm 5 mps 763 mmHg 88%
    21:00 -5°C° 0 mm 5 mps 763 mmHg 88%
    22:00 -4°C° 0 mm 4 mps 763 mmHg 88%
    23:00 -4°C° 0 mm 4 mps 763 mmHg 88%

    24 February, Saturday

    Time Temperature Precipitation Wind Pressure Humidity
    00:00 -5°C° 0 mm 4 mps 763 mmHg 88%
    01:00 -5°C° 0 mm 4 mps 763 mmHg 88%
    02:00 -5°C° 0 mm 4 mps 763 mmHg 88%
    03:00 -5°C° 0 mm 3 mps 763 mmHg 88%
    04:00 -5°C° 0 mm 3 mps 762 mmHg 89%
    05:00 -5°C° 0 mm 3 mps 762 mmHg 89%
    06:00 -5°C° 0 mm 3 mps 762 mmHg 88%
    07:00 -4°C° 0 mm 2 mps 762 mmHg 87%
    08:00 -4°C° 0 mm 2 mps 762 mmHg 87%
    09:00 -4°C° 0 mm 2 mps 762 mmHg 85%
    10:00 -3°C° 0 mm 2 mps 762 mmHg 84%
    11:00 -1°C° 0 mm 1 mps 762 mmHg 82%
    12:00 0°C° 0 mm 1 mps 762 mmHg 81%
    13:00 0°C° 0 mm 1 mps 761 mmHg 80%
    14:00 +1°C° 0 mm 1 mps 761 mmHg 79%
    15:00 +1°C° 0 mm 1 mps 761 mmHg 81%
    16:00 -1°C° 0 mm 2 mps 761 mmHg 83%
    17:00 -1°C° 0 mm 2 mps 761 mmHg 85%
    18:00 -2°C° 0 mm 3 mps 761 mmHg 87%
    19:00 -2°C° 0 mm 3 mps 761 mmHg 88%
    20:00 -3°C° 0 mm 4 mps 762 mmHg 90%
    21:00 -3°C° 0.1 mm 4 mps 762 mmHg 90%
    22:00 -4°C° 0.1 mm 4 mps 762 mmHg 89%
    23:00 -4°C° 0.1 mm 4 mps 762 mmHg 89%

    25 February, Sunday

    Time Temperature Precipitation Wind Pressure Humidity
    00:00 -4°C° 0 mm 4 mps 762 mmHg 90%
    01:00 -5°C° 0 mm 4 mps 762 mmHg 91%
    02:00 -5°C° 0 mm 4 mps 762 mmHg 93%
    03:00 -7°C° 0 mm 4 mps 762 mmHg 91%
    04:00 -7°C° 0 mm 5 mps 762 mmHg 90%
    05:00 -8°C° 0 mm 5 mps 762 mmHg 88%
    06:00 -8°C° 0 mm 5 mps 763 mmHg 87%
    07:00 -8°C° 0 mm 5 mps 763 mmHg 85%
    08:00 -8°C° 0 mm 5 mps 763 mmHg 84%
    09:00 -7°C° 0 mm 5 mps 763 mmHg 82%
    10:00 -7°C° 0 mm 5 mps 763 mmHg 80%
    11:00 -6°C° 0 mm 5 mps 764 mmHg 79%
    12:00 -6°C° 0 mm 5 mps 764 mmHg 78%
    13:00 -6°C° 0 mm 5 mps 764 mmHg 77%
    14:00 -6°C° 0 mm 5 mps 764 mmHg 76%
    15:00 -6°C° 0 mm 5 mps 764 mmHg 77%
    16:00 -8°C° 0 mm 6 mps 764 mmHg 78%
    17:00 -9°C° 0 mm 6 mps 764 mmHg 79%
    18:00 -9°C° 0 mm 7 mps 765 mmHg 79%
    19:00 -11°C° 0 mm 7 mps 765 mmHg 80%
    20:00 -12°C° 0 mm 7 mps 765 mmHg 81%
    21:00 -12°C° 0 mm 7 mps 765 mmHg 81%
    22:00 -13°C° 0 mm 7 mps 765 mmHg 81%
    23:00 -13°C° 0 mm 7 mps 765 mmHg 81%

    26 February, Monday

    Time Temperature Precipitation Wind Pressure Humidity
    00:00 -13°C° 0 mm 7 mps 766 mmHg 81%
    01:00 -14°C° 0 mm 7 mps 766 mmHg 81%
    02:00 -14°C° 0 mm 7 mps 766 mmHg 81%
    03:00 -15°C° 0 mm 7 mps 766 mmHg 81%
    04:00 -15°C° 0 mm 7 mps 766 mmHg 81%
    05:00 -17°C° 0 mm 7 mps 766 mmHg 81%
    06:00 -15°C° 0 mm 7 mps 766 mmHg 79%
    07:00 -15°C° 0 mm 7 mps 766 mmHg 78%
    08:00 -15°C° 0 mm 7 mps 767 mmHg 77%
    09:00 -14°C° 0 mm 7 mps 767 mmHg 73%
    10:00 -13°C° 0 mm 7 mps 767 mmHg 70%
    11:00 -12°C° 0 mm 7 mps 767 mmHg 67%
    12:00 -12°C° 0 mm 7 mps 767 mmHg 65%
    13:00 -11°C° 0 mm 7 mps 766 mmHg 64%
    14:00 -9°C° 0 mm 7 mps 766 mmHg 63%
    15:00 -11°C° 0 mm 7 mps 766 mmHg 66%
    16:00 -11°C° 0 mm 7 mps 766 mmHg 68%
    17:00 -11°C° 0 mm 7 mps 766 mmHg 71%
    18:00 -12°C° 0 mm 7 mps 766 mmHg 73%
    19:00 -12°C° 0 mm 8 mps 766 mmHg 75%
    20:00 -13°C° 0 mm 8 mps 766 mmHg 77%
    21:00 -13°C° 0 mm 8 mps 766 mmHg 77%
    22:00 -13°C° 0 mm 8 mps 766 mmHg 76%
    23:00 -13°C° 0 mm 8 mps 766 mmHg 76%
    Show more